Regional Weather Roundup
Issued by NWS Goodland, KS

Home | Current Version | Previous Version | Graphics & Text | Print | Product List | Glossary On
Versions: 1 2 3 4 5 6 7 8 9 10 11 12 13 14 15 16 17 18 19 20 21 22 23 24 25 26 27 28 29 30 31 32 33 34 35 36 37 38 39 40 41 42 43 44 45 46 47 48 49 50
000
ASUS43 KGLD 310808
RWRGLD

GOODLAND FORECAST AREA HOURLY WEATHER ROUNDUP
NATIONAL WEATHER SERVICE GOODLAND KS
200 AM MDT FRI OCT 31 2014

...OFFICIAL OBSERVATIONS...

CITY           SKY/WX    TMP DP  RH WIND       PRES   REMARKS
GOODLAND KS    CLEAR     30  26  85 NE6       30.46S
HILL CITY KS   CLEAR     37  31  78 N12       30.46R
IMPERIAL NEB   CLEAR     29  24  82 N5        30.48R
MCCOOK NEB     CLEAR     30  27  88 N5        30.48R
AKRON CO       CLEAR     32  27  81 SE12      30.42F
BURLINGTON CO  CLEAR     32  26  78 E7        30.45R
LIMON CO       CLEAR     29  24  82 CALM      30.44S
$$

...UNOFFICIAL OBSERVATIONS...

CITY           SKY/WX    TMP DP  RH WIND       PRES   REMARKS
COLBY KS       CLEAR     32  30  93 N9        30.46S
NORTON KS      CLEAR     34  28  80 N3        30.45R
SHARON SPRINGS   N/A     35  29  79 CALM        N/A
TRENTON NEB      N/A     32  32 100 CALM        N/A
YUMA CO          N/A     33  26  77 CALM        N/A
$$



USA.gov is the U.S. government's official web portal to all federal, state and local government web resources and services.